Content
SEND FEEDBACK

Daily
Averages
Monthly
Summary
United States of America

FAYETTEVILLE, TENNESSEE


Home > North America > United States > Tennessee
Elevation: 700 feet     Latitude: 35 10N     Longitude: 086 33W

WEATHER
 
SELECT A DAY
Number of Records: 304,012;   Date Range: 4/22/02 - 9/30/14
 
SHARE

PRINT THIS DATA

[ ← Previous Day ]
WEATHER ALMANAC - SEPTEMBER 21, 2013
[ Next Day → ]
[ °C ]   °F
Weather ElementAverageHighLow
Temperature66 °F71.6 °F (12:35 am)55.4 °F (10:55 pm)
Dewpoint60.3 °F68 °F (2:15 am)51.8 °F (5:15 pm)
Humidity83 %94 % (2:15 am)50 % (5:15 pm)
Barometer29.83 in29.87 in (9:55 pm)29.75 in (5:15 am)
Wind Speed6.2 mph20.7 mph (5:55 am)
Wind Gust28.8 mph (5:55 am)
Weather ElementAverage
Visibility8.1 mi
Wind DirectionWSW (233.2 °)

Weather ElementTotal
Precipitation4.24 in
Heating Degree Days1.5 (Base 65)
Growing Degree Days13.5 (Base 50)
Averaged from 71 records on September 21, 2013
WEATHER CONDITIONS BREAKOUT
WIND DIRECTION BREAKOUT
WEATHER BY HOUR - SEPTEMBER 21, 2013
[ °C ]   °F
Local TimeTemperatureDewpointHumidityBarometerVisibilityWind DirectionWind SpeedGust SpeedPrecipitationEventsConditions
12:35 AM71.6 °F66.2 °F83 %29.85 in10.0 miSSE (160°)4.6 mph0.01 inRainLight Rain
12:55 AM71.6 °F66.2 °F83 %29.84 in10.0 miSouth (180°)8.1 mph0.02 inRainLight Rain
1:15 AM69.8 °F66.2 °F88 %29.84 in3.0 miSouth (180°)9.2 mph0.13 inRainHeavy Rain
1:35 AM69.8 °F66.2 °F88 %29.83 in7.0 miSouth (170°)4.6 mph0.14 inRainLight Rain
1:55 AM69.8 °F66.2 °F88 %29.83 in3.0 miSSW (200°)9.2 mph0.25 inRainHeavy Rain
2:15 AM69.8 °F68.0 °F94 %29.82 in2.5 miSSW (200°)6.9 mph0.20 inRainHeavy Rain
2:35 AM69.8 °F68.0 °F94 %29.81 in4.0 miSouth (190°)9.2 mph0.36 inRainHeavy Rain
2:55 AM69.8 °F68.0 °F94 %29.80 in7.0 miSouth (180°)6.9 mph0.37 inRainLight Rain
3:15 AM69.8 °F68.0 °F94 %29.79 in7.0 miSouth (170°)5.8 mphRainLight Rain
3:35 AM69.8 °F68.0 °F94 %29.79 in10.0 miSouth (180°)5.8 mph0.01 inRainRain
3:55 AM69.8 °F68.0 °F94 %29.78 in7.0 miSouth (170°)4.6 mph0.01 inRainRain
4:15 AM69.8 °F68.0 °F94 %29.78 in7.0 miSouth (170°)5.8 mph0.01 inRainRain
4:35 AM71.6 °F68.0 °F88 %29.77 in4.0 miSouth (190°)11.5 mph18.4 mph0.09 inRainRain
4:55 AM69.8 °F68.0 °F94 %29.76 in5.0 miSouth (180°)9.2 mph0.14 inRainRain
5:15 AM69.8 °F68.0 °F94 %29.75 in5.0 miSSE (160°)10.4 mph0.02 inRainLight Rain
5:35 AM71.6 °F68.0 °F88 %29.76 in7.0 miSouth (180°)10.4 mph18.4 mph0.03 inRainLight Rain
5:55 AM69.8 °F68.0 °F94 %29.77 in1.5 miSouth (190°)20.7 mph28.8 mph0.39 inRainHeavy Rain
6:15 AM66.2 °F62.6 °F88 %29.81 in2.5 miNNW (330°)11.5 mph0.25 inRainHeavy Rain
6:35 AM64.4 °F62.6 °F94 %29.81 in3.0 miNNW (330°)9.2 mph0.50 inRainHeavy Rain
6:55 AM64.4 °F62.6 °F94 %29.81 in5.0 miNorth (360°)6.9 mph0.64 inRainHeavy Rain
7:15 AM64.4 °F60.8 °F88 %29.82 in5.0 miNorth (360°)6.9 mph0.07 inRainRain
7:35 AM64.4 °F60.8 °F88 %29.84 in5.0 miNNW (340°)6.9 mph0.12 inRainHeavy Rain
7:55 AM64.4 °F60.8 °F88 %29.83 in4.0 miNNE (20°)4.6 mph0.20 inRainRain
8:15 AM64.4 °F60.8 °F88 %29.82 in7.0 miNNE (20°)5.8 mph0.02 inRainRain
8:35 AM64.4 °F60.8 °F88 %29.82 in7.0 miNNE (20°)4.6 mph0.04 inRainRain
8:55 AM64.4 °F62.6 °F94 %29.83 in10.0 miNorth (360°)6.9 mph0.04 inRainLight Rain
9:15 AM64.4 °F62.6 °F94 %29.83 in7.0 miNorth (10°)4.6 mph0.01 inRainRain
9:35 AM64.4 °F62.6 °F94 %29.83 in7.0 miNNE (20°)3.5 mph0.03 inRainRain
9:55 AM64.4 °F62.6 °F94 %29.83 in4.0 miNNE (20°)3.5 mph0.07 inRainRain
10:15 AM64.4 °F62.6 °F94 %29.84 in7.0 miNNW (340°)4.6 mph0.02 inRainRain
10:35 AM64.4 °F62.6 °F94 %29.84 in10.0 miNorth (350°)5.8 mph0.02 inRainLight Rain
10:55 AM66.2 °F62.6 °F88 %29.84 in10.0 miNorth (350°)5.8 mph0.03 inRainLight Rain
11:15 AM66.2 °F62.6 °F88 %29.84 in10.0 miNorth (360°)5.8 mphMostly Cloudy
11:35 AM68.0 °F62.6 °F83 %29.85 in10.0 miNorth (350°)6.9 mphMostly Cloudy
11:55 AM66.2 °F62.6 °F88 %29.85 in7.0 miNNW (330°)4.6 mphRainRain
12:15 PM66.2 °F62.6 °F88 %29.84 in4.0 miCalmRainRain
12:35 PM66.2 °F62.6 °F88 %29.85 in10.0 miNNW (340°)6.9 mphOvercast
12:55 PM68.0 °F62.6 °F83 %29.84 in10.0 miNNW (330°)5.8 mphOvercast
1:15 PM68.0 °F62.6 °F83 %29.85 in10.0 miNNW (330°)13.8 mphOvercast
1:35 PM68.0 °F62.6 °F83 %29.84 in10.0 miNNW (340°)9.2 mphOvercast
1:55 PM68.0 °F62.6 °F83 %29.84 in10.0 miNorth (360°)8.1 mphOvercast
2:15 PM66.2 °F60.8 °F83 %29.83 in10.0 miNNW (340°)9.2 mphOvercast
2:35 PM68.0 °F60.8 °F78 %29.83 in10.0 miNorth (10°)6.9 mphOvercast
2:55 PM68.0 °F60.8 °F78 %29.82 in10.0 miNNW (340°)8.1 mphOvercast
3:15 PM68.0 °F59.0 °F73 %29.82 in10.0 miNorth (350°)8.1 mphOvercast
3:35 PM69.8 °F59.0 °F68 %29.81 in10.0 miNorth (10°)5.8 mphOvercast
3:55 PM69.8 °F59.0 °F68 %29.81 in10.0 miNNW (330°)10.4 mphMostly Cloudy
4:15 PM69.8 °F57.2 °F64 %29.81 in10.0 miNorth (10°)8.1 mphScattered Clouds
4:35 PM71.6 °F53.6 °F53 %29.81 in10.0 miNorth (360°)9.2 mphScattered Clouds
4:55 PM71.6 °F53.6 °F53 %29.81 in10.0 miNorth (350°)5.8 mphScattered Clouds
5:15 PM71.6 °F51.8 °F50 %29.81 in10.0 miNorth (350°)9.2 mphClear
5:35 PM71.6 °F51.8 °F50 %29.81 in10.0 miNorth (360°)10.4 mphClear
5:55 PM69.8 °F51.8 °F53 %29.81 in10.0 miNorth (360°)5.8 mphClear
6:15 PM69.8 °F53.6 °F56 %29.82 in10.0 miNorth (360°)3.5 mphClear
6:35 PM66.2 °F55.4 °F68 %29.82 in10.0 miNorth (360°)3.5 mphClear
6:55 PM64.4 °F55.4 °F73 %29.82 in10.0 miNW (320°)4.6 mphScattered Clouds
7:15 PM62.6 °F53.6 °F72 %29.82 in10.0 miNNW (340°)4.6 mphClear
7:35 PM62.6 °F53.6 °F72 %29.83 in10.0 miNNW (340°)4.6 mphClear
7:55 PM62.6 °F53.6 °F72 %29.84 in10.0 miNNW (340°)3.5 mphClear
8:15 PM60.8 °F53.6 °F77 %29.84 in10.0 miNorth (360°)4.6 mphClear
8:35 PM59.0 °F53.6 °F82 %29.85 in10.0 miNNW (340°)3.5 mphClear
8:55 PM59.0 °F53.6 °F82 %29.86 in10.0 miCalmClear
9:15 PM60.8 °F53.6 °F77 %29.86 in10.0 miNW (320°)3.5 mphClear
9:35 PM59.0 °F53.6 °F82 %29.86 in10.0 miNW (320°)3.5 mphClear
9:55 PM57.2 °F53.6 °F88 %29.87 in10.0 miNW (320°)3.5 mphClear
10:15 PM57.2 °F53.6 °F88 %29.86 in10.0 miNW (320°)3.5 mphClear
10:35 PM57.2 °F53.6 °F88 %29.86 in10.0 miNNW (330°)3.5 mphClear
10:55 PM55.4 °F51.8 °F88 %29.86 in10.0 miCalmClear
11:15 PM55.4 °F53.6 °F94 %29.86 in10.0 miCalmClear
11:35 PM55.4 °F53.6 °F94 %29.87 in10.0 miCalmClear
11:55 PM55.4 °F51.8 °F88 %29.86 in10.0 miCalmClear
Hourly data recorded from KMDQ, located miles away from Fayetteville, Tennessee







STORIES FROM OUR PARTNERS